Tracking 19242 objects as of 15-Aug-2018
HD Live streaming from Space Station
objects crossing your sky now

FENGYUN 1C DEB

Track FENGYUN 1C DEB now!
10-day predictions


NORAD ID: 31383
Int'l Code: 1999-025BSP
Perigee: 817.0 km
Apogee: 986.6 km
Inclination: 99.3 °
Period: 102.9 minutes
Semi major axis: 7272 km
RCS: 0.0142 m2 (small)
Launch date: May 10, 1999
Source: People's Republic of China (PRC)
Launch site: Taiyaun Space Center, China (TSC)

Note: This is SATELLITE DEBRIS
aabbcc
Your satellite tracking list
Your tracking list is empty




NASA's NSSDC Master Catalog

Two Line Element Set (TLE):
1 31383U 99025BSP 18227.56056552  .00000129  00000-0  11235-3 0  9994
2 31383  99.2839 232.4976 0116555 119.9385   5.0051 13.99753882578817
Source of the keplerian elements: AFSPC